This is the latest recevied weather packets stored in our database for station/object KY4OP-13. If no packets are shown the sender has not sent any weather packets the latest 10 day(s).
| Time | Temp. | Humidity | Pressure | Rain* | Wind** | Luminosity | Snow |
|---|---|---|---|---|---|---|---|
| 1778039235 | 17.22° C | 60% | 1013.2 hPa | 0 mm | - | - | - |
| 1778038932 | 17.78° C | 59% | 1013 hPa | 0 mm | - | - | - |
| 1778038629 | 17.78° C | 59% | 1013.3 hPa | 0 mm | - | - | - |
| 1778038326 | 17.78° C | 58% | 1013.2 hPa | 0 mm | - | - | - |
| 1778038024 | 17.78° C | 58% | 1013.2 hPa | 0 mm | - | - | - |
| 1778037721 | 17.78° C | 57% | 1013.4 hPa | 0 mm | - | - | - |
| 1778037418 | 17.78° C | 57% | 1013.3 hPa | 0 mm | - | - | - |
| 1778037115 | 17.78° C | 57% | 1013.3 hPa | 0 mm | - | - | - |
| 1778036813 | 17.78° C | 56% | 1013.2 hPa | 0 mm | - | - | - |
| 1778036510 | 18.33° C | 55% | 1013 hPa | 0 mm | - | - | - |
| 1778036206 | 18.33° C | 54% | 1013.2 hPa | 0 mm | - | - | - |
| 1778035902 | 18.33° C | 54% | 1013.2 hPa | 0 mm | - | - | - |
| 1778035600 | 18.33° C | 54% | 1013.1 hPa | 0 mm | - | - | - |
| 1778035296 | 18.89° C | 52% | 1013.5 hPa | 0 mm | - | - | - |
| 1778034992 | 19.44° C | 51% | 1013.4 hPa | 0 mm | - | - | - |
| 1778034690 | 19.44° C | 51% | 1013.5 hPa | 0 mm | - | - | - |
| 1778034387 | 19.44° C | 50% | 1013.4 hPa | 0 mm | - | - | - |
| 1778034084 | 20° C | 49% | 1013.3 hPa | 0 mm | - | - | - |
| 1778033782 | 20° C | 48% | 1013.3 hPa | 0 mm | - | - | - |
| 1778033479 | 20.56° C | 47% | 1013.2 hPa | 0 mm | - | - | - |
| 1778033176 | 20.56° C | 47% | 1013.3 hPa | 0 mm | - | - | - |
| 1778032874 | 21.11° C | 46% | 1013.3 hPa | 0 mm | - | - | - |
| 1778032571 | 20.56° C | 47% | 1013.2 hPa | 0 mm | - | - | - |
| 1778032268 | 20.56° C | 48% | 1013.1 hPa | 0 mm | - | - | - |
| 1778031966 | 20.56° C | 47% | 1013.3 hPa | 0 mm | - | - | - |
* Rain latest hour (hover to see other rain measurements)
** Current wind speed in m/s (hover to see current wind gust speed)